Location: Boiro
(42.6475°N, 8.8834°W)
Time: 12:53:31
(UTC+02:00)

Transit 4A - Visible Passes

Search period start: 24 September 2023 00:00
Search period end: 04 October 2023 00:00
Orbit: 862 x 982 km, 66.8° (Epoch: 24 September)

Date Brightness Start Highest point End Pass type
(mag) Time Alt. Az. Time Alt. Az. Time Alt. Az.
24 Sep 9.2 22:17:14 10° N 22:22:15 24° NE 22:23:28 22° ENE visible
25 Sep 9.0 00:03:00 10° NNW 00:06:58 41° NW 00:06:58 41° NW visible
25 Sep 8.9 22:26:08 10° NNW 22:31:44 31° NE 22:32:26 30° ENE visible
26 Sep 9.3 00:12:16 10° NW 00:15:56 34° NW 00:15:56 34° NW visible
26 Sep 9.9 20:50:29 10° N 20:52:53 12° NNE 20:55:16 10° NE visible
26 Sep 8.4 22:35:06 10° NNW 22:41:07 42° NE 22:41:26 42° ENE visible
27 Sep 9.7 00:21:41 10° NW 00:24:56 27° WNW 00:24:56 27° WNW visible
27 Sep 9.8 20:58:59 10° N 21:02:36 15° NNE 21:06:10 10° ENE visible
27 Sep 8.0 22:44:09 10° NNW 22:50:25 58° NE 22:50:30 58° ENE visible
28 Sep 10.0 00:31:18 10° NW 00:34:00 20° WNW 00:34:00 20° WNW visible
28 Sep 9.5 21:07:43 10° N 21:12:14 20° NE 21:16:06 12° ENE visible
28 Sep 7.8 22:53:15 10° NNW 22:59:37 82° ENE 22:59:37 82° ENE visible
29 Sep 10.3 00:41:21 10° WNW 00:43:08 15° W 00:43:08 15° W visible
29 Sep 9.1 21:16:34 10° NNW 21:21:46 26° NE 21:25:17 16° E visible
29 Sep 8.0 23:02:27 10° NW 23:08:45 71° WSW 23:08:48 71° WSW visible
30 Sep 8.7 21:25:29 10° NNW 21:31:13 34° NE 21:34:32 21° E visible
30 Sep 8.5 23:11:45 10° NW 23:17:47 49° WSW 23:18:03 48° WSW visible
01 Oct 8.3 21:34:29 10° NNW 21:40:35 46° NE 21:43:52 25° ESE visible
01 Oct 9.2 23:21:14 10° NW 23:26:45 33° WSW 23:27:24 32° WSW visible
02 Oct 7.9 21:43:32 10° NNW 21:49:51 65° NE 21:53:19 27° SE visible
02 Oct 9.7 23:30:57 10° WNW 23:35:37 22° WSW 23:36:51 21° WSW visible
03 Oct 7.9 21:52:40 10° NNW 21:59:02 89° WSW 22:02:54 24° SSE visible
03 Oct 10.3 23:41:14 10° WNW 23:44:25 15° W 23:46:27 12° WSW visible
